Barcelona, Spain

12:55 AM CET on December 16, 2017 (GMT +0100)
El Prat

Weather History for LEBL - February, 2014

Change the Weather History Date:

Sunday, February 2, 2014

  Actual Average Record
Temperature  
Mean Temperature 48 °F -  
Max Temperature 58 °F 55 °F 62 °F (2000)
Min Temperature 37 °F 41 °F 33 °F (1999)
Degree Days  
Heating Degree Days 18    
Moisture  
Dew Point 32 °F    
Average Humidity 52    
Maximum Humidity 76    
Minimum Humidity 24    
Precipitation  
Precipitation 0.00 in 0.05 in - ()
Sea Level Pressure  
Sea Level Pressure 29.95 in    
Wind  
Wind Speed 8 mph ()    
Max Wind Speed 17 mph    
Max Gust Speed 30 mph    
Visibility 11.9 miles    
Events      
Averages and records for this station are not official NWS values.
T = Trace of Precipitation, MM = Missing Value Source: Averaged Metar Reports

Daily Weather History Graph

Daily Weather History Graph

Search for Another Location

Airport or City:

Trip Planner

Search our weather history database for the weather conditions in past years. The results will help you decide how hot, cold, wet, or windy it might be!

Date:

Astronomy

Feb. 02, 2014 Rise Set
Actual Time 8:02 AM CET 6:09 PM CET
Civil Twilight 7:32 AM CET 6:38 PM CET
Nautical Twilight 6:59 AM CET 7:11 PM CET
Astronomical Twilight 6:27 AM CET 7:43 PM CET
Moon 9:17 AM CET (2/2) 9:38 PM CET (2/2)
Length of Visible Light 11h 05m
Length of Day
10h 07m
Waxing Crescent, 9% of the Moon is Illuminated
Feb 2
Waxing Crescent
Feb 6
First Quarter
Feb 15
Full
Feb 22
Last Quarter
Mar 1
New

Hourly Weather History & Observations

Time (CET) Temp. Windchill Dew Point Humidity Pressure Visibility Wind Dir Wind Speed Gust Speed Precip Events Conditions
12:00 AM 47 °F - 40 °F 70% 29.81 in 19 mi North 8.1 mph - -  
12:00 AM 46.4 °F 42.9 °F 37.4 °F 71% 29.80 in 6.2 mi NNW 6.9 mph - N/A   Partly Cloudy
12:30 AM 46.4 °F 41.9 °F 35.6 °F 66% 29.80 in 6.2 mi NNW 9.2 mph - N/A   Partly Cloudy
1:00 AM 47 °F - 36 °F 55% 29.82 in 19 mi NW 6.9 mph - -   Scattered Clouds
1:00 AM 46.4 °F 40.7 °F 33.8 °F 62% 29.80 in 6.2 mi WNW 12.7 mph - N/A   Partly Cloudy
1:30 AM 46.4 °F 43.5 °F 33.8 °F 62% 29.83 in 6.2 mi WNW 5.8 mph - N/A   Partly Cloudy
2:00 AM 46 °F - 35 °F 54% 29.84 in 19 mi NW 11.5 mph - -  
2:00 AM 46.4 °F 42.9 °F 32.0 °F 57% 29.83 in 6.2 mi WNW 6.9 mph - N/A   Partly Cloudy
2:30 AM 44.6 °F 38.8 °F 32.0 °F 61% 29.83 in 6.2 mi NW 11.5 mph - N/A   Scattered Clouds
3:00 AM 43 °F - 34 °F 62% 29.86 in 19 mi North 8.1 mph - -  
3:00 AM 42.8 °F 37.5 °F 32.0 °F 66% 29.86 in 6.2 mi North 9.2 mph - N/A   Scattered Clouds
3:30 AM 44.6 °F 39.7 °F 32.0 °F 61% 29.86 in 6.2 mi NNW 9.2 mph - N/A   Mostly Cloudy
4:00 AM 44 °F - 35 °F 60% 29.89 in 19 mi North 5.8 mph - -   Mostly Cloudy
4:00 AM 44.6 °F 40.2 °F 32.0 °F 61% 29.89 in 6.2 mi NNW 8.1 mph - N/A   Mostly Cloudy
4:30 AM 42.8 °F 38.6 °F 32.0 °F 66% 29.89 in 6.2 mi NW 6.9 mph - N/A   Scattered Clouds
5:00 AM 42 °F - 33 °F 62% 29.91 in 19 mi North 6.9 mph - -  
5:00 AM 41.0 °F 37.1 °F 32.0 °F 70% 29.89 in 6.2 mi NW 5.8 mph - N/A   Partly Cloudy
5:30 AM 41.0 °F 36.4 °F 32.0 °F 70% 29.92 in 6.2 mi NW 6.9 mph - N/A   Partly Cloudy
6:00 AM 41 °F - 33 °F 64% 29.93 in 19 mi NNW 6.9 mph - -  
6:00 AM 41.0 °F 34.7 °F 30.2 °F 65% 29.92 in 6.2 mi NW 10.4 mph - N/A   Partly Cloudy
6:30 AM 41.0 °F 35.2 °F 30.2 °F 65% 29.92 in 6.2 mi NNW 9.2 mph - N/A   Partly Cloudy
7:00 AM 38 °F - 33 °F 76% 29.95 in 19 mi NW 5.8 mph - -   Scattered Clouds
7:00 AM 39.2 °F 34.2 °F 30.2 °F 70% 29.92 in 6.2 mi NW 6.9 mph - N/A   Partly Cloudy
7:30 AM 39.2 °F 32.0 °F 30.2 °F 70% 29.95 in 6.2 mi NW 11.5 mph - N/A   Partly Cloudy
8:00 AM 38 °F - 33 °F 74% 29.96 in 19 mi West 1.2 mph - -  
8:00 AM 37.4 °F 29.8 °F 30.2 °F 75% 29.95 in 6.2 mi West 11.5 mph - N/A   Partly Cloudy
8:30 AM 41.0 °F 34.7 °F 30.2 °F 65% 29.98 in 6.2 mi WNW 10.4 mph - N/A   Partly Cloudy
9:00 AM 43 °F - 33 °F 56% 29.99 in 19 mi North 5.8 mph - -  
9:00 AM 42.8 °F 38.0 °F 30.2 °F 61% 29.98 in - WNW 8.1 mph - N/A   Clear
9:30 AM 44.6 °F 40.7 °F 30.2 °F 57% 29.98 in - WNW 6.9 mph - N/A   Clear
10:00 AM 46 °F - 35 °F 54% 29.99 in 19 mi NNW 9.2 mph - -   Scattered Clouds
10:00 AM 44.6 °F 38.8 °F 32.0 °F 61% 29.98 in - WNW 11.5 mph 25.3 mph N/A   Clear
10:30 AM 46.4 °F 40.4 °F 32.0 °F 57% 29.98 in - NW 13.8 mph 26.5 mph N/A   Clear
11:00 AM 48 °F - 36 °F 52% 30.00 in 19 mi NNW 13.8 mph - -  
11:00 AM 48.2 °F - 32.0 °F 54% 29.98 in - NW 17.3 mph - N/A   Clear
11:30 AM 50.0 °F - 32.0 °F 50% 29.98 in 6.2 mi NW 15.0 mph - N/A   Partly Cloudy
12:00 PM 52 °F - 35 °F 40% 30.01 in 19 mi NNW 9.2 mph - -  
12:00 PM 51.8 °F - 33.8 °F 50% 30.01 in - NW 13.8 mph - N/A   Clear
12:30 PM 51.8 °F - 30.2 °F 44% 30.01 in - NW 17.3 mph - N/A   Clear
1:00 PM 54 °F - 34 °F 34% 30.01 in 19 mi NNW 9.2 mph - -  
1:00 PM 53.6 °F - 32.0 °F 44% 30.01 in - NW 15.0 mph 26.5 mph N/A   Clear
1:30 PM 55.4 °F - 30.2 °F 38% 29.98 in - NW 15.0 mph 26.5 mph N/A   Clear
2:00 PM 57 °F - 32 °F 26% 29.98 in 19 mi WNW 13.8 mph - -  
2:00 PM 55.4 °F - 26.6 °F 33% 29.98 in - NW 13.8 mph - N/A   Clear
2:30 PM 57.2 °F - 26.6 °F 31% 29.98 in - WNW 15.0 mph 29.9 mph N/A   Clear
3:00 PM 58 °F - 36 °F 32% 29.97 in 19 mi West 8.1 mph - -  
3:00 PM 57.2 °F - 33.8 °F 41% 29.95 in - NW 10.4 mph - N/A   Clear
3:30 PM 57.2 °F - 28.4 °F 33% 29.95 in 6.2 mi WNW 11.5 mph - N/A   Partly Cloudy
4:00 PM 58 °F - 31 °F 24% 29.97 in 19 mi West 10.4 mph - -   Scattered Clouds
4:00 PM 57.2 °F - 30.2 °F 36% 29.95 in - West 9.2 mph - N/A   Clear
4:30 PM 57.2 °F - 30.2 °F 36% 29.95 in - NW 8.1 mph - N/A   Clear
5:00 PM 57 °F - 33 °F 29% 29.97 in 19 mi WNW 12.7 mph - -  
5:00 PM 55.4 °F - 30.2 °F 38% 29.95 in - WNW 13.8 mph - N/A   Clear
5:30 PM 55.4 °F - 30.2 °F 38% 29.98 in - WNW 10.4 mph - N/A   Clear
6:00 PM 54 °F - 33 °F 33% 29.99 in 19 mi NW 10.4 mph - -  
6:00 PM 53.6 °F - 30.2 °F 41% 29.98 in - WNW 10.4 mph - N/A   Clear
6:30 PM 53.6 °F - 32.0 °F 44% 29.98 in - NW 9.2 mph - N/A   Clear
7:00 PM 52 °F - 33 °F 36% 30.00 in 19 mi SW 2.3 mph - -   Scattered Clouds
7:00 PM 51.8 °F - 30.2 °F 44% 29.98 in 6.2 mi WNW 6.9 mph - N/A   Partly Cloudy
7:30 PM 51.8 °F - 30.2 °F 44% 29.98 in 6.2 mi NNW 6.9 mph - N/A   Partly Cloudy
8:00 PM 51 °F - 33 °F 39% 30.00 in 19 mi North 4.6 mph - -  
8:00 PM 51.8 °F - 32.0 °F 47% 29.98 in 6.2 mi NNE 4.6 mph - N/A   Partly Cloudy
8:30 PM 50.0 °F - 32.0 °F 50% 29.98 in 6.2 mi NE 6.9 mph - N/A   Partly Cloudy
9:00 PM 50 °F - 35 °F 44% 30.00 in 19 mi NNE 8.1 mph - -  
9:00 PM 50.0 °F - 32.0 °F 50% 29.98 in 6.2 mi North 8.1 mph - N/A   Partly Cloudy
9:30 PM 48.2 °F - 32.0 °F 54% 30.01 in 6.2 mi North 4.6 mph - N/A   Partly Cloudy
10:00 PM 49 °F - 35 °F 47% 30.01 in 19 mi North 5.8 mph - -   Scattered Clouds
10:00 PM 50.0 °F - 32.0 °F 50% 30.01 in 6.2 mi North 6.9 mph - N/A   Partly Cloudy
10:30 PM 48.2 °F - 32.0 °F 54% 30.01 in 6.2 mi North 6.9 mph - N/A   Partly Cloudy
11:00 PM 47 °F - 35 °F 52% 30.01 in 19 mi NNW 4.6 mph - -  
11:00 PM 46.4 °F 43.5 °F 33.8 °F 62% 29.98 in 6.2 mi NNW 5.8 mph - N/A   Partly Cloudy
11:30 PM 44.6 °F 43.1 °F 33.8 °F 66% 29.98 in 6.2 mi WNW 3.5 mph - N/A   Partly Cloudy